TSIKADA

Satellite information

Favourite Embed

Satellite Type and Status

PAYLOADIN ORBIT

Key statistics

Satellite TSIKADA at a glance.

Uptime

11062

Days in orbit

Revolutions

≈ 13.7

Per day

Orbit

LEO

Low Earth Orbit

Inclination

82.9

Latest

Satellite identification and parameters

Extended collection of information and parameters for TSIKADA.

Object identification

Identified? True

Debris? False

Object name: TSIKADA

International designator: 1995-002A

Object number (NORAD): 23463

Object ID (CCSDS): 23463

Country: COMMONWEALTH OF INDEPENDENT STATES (CIS)

Current information (Y/N): Y

RCS size: LARGE

Orbital parameters

Period: 104.903 minutes

Inclination: 82.9252 deg

SMA: 7368.043 km

Apoapsis: 1018.511 km

Periapsis: 961.306 km

RAAN: 315.6459 deg

Eccentricy: 0.003882

Argument of periapsis: 183.3683 deg

Mean anomaly: 295.8328 deg

Mean motion: 13.72696418 rev/day

Mean motion (dot): 0.00000102 rev/day2

B* drag term: 0.000094096 1/REarth

Two-line elements (TLE)

Creation date: May 8, 2025, 3:01 a.m.

Reference frame: TEME

Reference center: EARTH

Epoch: May 7, 2025, 9:26 p.m. UTC

TLE line 0: 0 TSIKADA

TLE line 1: 1 23463U 95002A 25127.89321316 .00000102 00000-0 94096-4 0 9999

TLE line 2: 2 23463 82.9252 315.6459 0038820 183.3683 295.8328 13.72696418516707

Live tracking on map

Real-time ground track for satellite TSIKADA.

In-orbit conjunctions

A list of the most updated potential collisions computed for object TSIKADA.

Target Orbit TCA Probability of collision Miss distance Type
COSMOS 249 DEB LEO 2025-04-25 21:23:29 0.0002066644 733.0 (m) DEBRIS

Associated space launch

Civilian navigation satellite equivalent to the purely military Parus

TSIKADA was lifted into orbit during the mission ‘Kosmos-3M | Tsikada 20’, on board a Kosmos-3M space rocket.

The launch took place on Jan. 24, 1995, 3:54 a.m. from 132/1 (132L).

For more information about the launch, click the button.

Launch to space Kosmos-3M | Tsikada 20
Kosmos-3M | Tsikada 20

Agency: N/A

Status: Launch Successful

Launch date: Jan. 24, 1995, 3:54 a.m. UTC

Rocket: Kosmos-3M

Launch pad: 132/1 (132L)

Location: Plesetsk Cosmodrome, Russian Federation

...

Latest news about this satellite

There are no fresh news available about this satellite. Check back as we update our databases every day.


Newsletter sign-up

Weekly statistics, charts and insights to help you stay on top of the space industry.